DECAYED
Showing default

KUIPER-00052, 64512 (Decayed)

Orbit data source: Space-Track

KUIPER-00052, 64512 was a payload satellite owned by Kuiper Systems (US) in LEO that was launched on Mon, 23 Jun 2025 UTC via an ATLAS V 551 launch vehicle from the Air Force Eastern Test Range (AFETR). Payload-class satellites include a variety of spacecraft equipped with specific instruments for various scientific and technological missions. These include communications satellites like Starlink; space stations such as the ISS; scientific satellites like the Hubble; Earth observation satellites from companies like Planet Labs, Umbra, and HawkEye 360; GPS; miniature CubeSats for education and research; and military/defense satellites.

Not visible in the next 10 days
Identifier
64512, 2025-134N
Orbit
Decayed
Country
Flag of USUS
Related business
Manufacturer
Kuiper Systems
Mission
Decayed Commercial Communications
Bus & Motor
KUIPER, Unknown motor
Mass
~490 kg wet, ~490 kg dry
Launch date (UTC)
2025-06-23 (1 year ago)
Launch vehicle
ATLAS V 551
Launch site
Air Force Eastern Test Range (AFETR)
Object type
Payload
Rocket body
Debris
Shape & HBR
Box + 2 Pan, 3.4 m
Radar Cross Section
2.326 m², Large (>1 m²)

Expand to show TLE details & history
Last TLE update: 4 months ago

TLE from 4 months ago
0 KUIPER-00052
1 64512U 25134N   26060.64619447  .09316208  12060-4  32752-2 0  9991
2 64512  51.8288 144.9445 0006774 329.5539  30.5090 16.24339733 40577
Epoch: 2026-03-01T15:30Z
TLE epoch observation values (Epoch: 2026-03-01T15:30:31.202Z)
Latitude
0.00001°
Longitude
112.86353°
Altitude
204.739 km
Speed
7.787 km/s
True Right ascension
09h 39m 46s
True Declination
0° 00' 00"
Sunlit
Object was in full shadow at epoch
Visualization orbit readout
Latitude
Unknown
Longitude
Unknown
Altitude
Unknown
Speed
Unknown
Apparent Right ascension
Unknown
Apparent Declination
Unknown
Sunlit
N/A
Visualization observer readout
Local Sidereal Time
07:16:29
Azimuth
Unknown
Elevation
Unknown
Doppler factor
Unknown
Orbital elements
Apogee altitude
212.749 km
Perigee altitude
203.825 km
Semi-major axis
6,586.424 km
Eccentricity
0.00068
Inclination
51.8288°
RAAN
144.9445°
Arg. of periapsis
329.5539°
True anomaly
30.54844°
Mean anomaly
30.509°
Eccentric anomaly
30.52872°
Mean motion
4.0604 °/min
Orbital period
88.66 mins
BSTAR
0.0032752
Loading maneuver chart data...
Computing Atmospheric mass density...
Loading historical data...
Loading historical data...
Loading historical data...
Loading historical data...
Loading historical data...
Loading historical data...
Loading historical data...

Documentation

Showing up to 5 results
|